Location: Unnamed
(45.1820°N, 67.3015°W)
Time: 07:28:16
(UTC-04:00)

ISS - Pass Details

Date: 18 February 2026
Orbit: 416 x 427 km, 51.6° (Epoch: 5 March)

Event Time Altitude Azimuth Distance (km) Brightness Sun altitude
Exits shadow 06:06:39 30° 290° (WNW) 784 -2.9 -14.6°
Maximum altitude 06:07:50 43° 340° (NNW) 600 -3.2 -14.4°
Drops below altitude 10° 06:11:03 10° 54° (NE) 1,495 -0.2 -13.8°
Sets 06:13:13 0° 61° (ENE) 2,359 1.1 -13.4°
